IGO555 VQPR-VABB

Flight info

Callsign IGO555
Flight time N/A
Altitude 38000
Route PR704 DCT 2723N08927E DCT PR708 DCT PR710 DCT 2720N08932E DCT PR712 DCT PR714 DCT PR746 DCT PR794 DCT SUBSU DCT BGD W105 KHR/N0402F240 V31 TEPAL V71 MIDIL W64 RRC/N0462F380 W100 KINKI G450 OPAKA EMRAK2A
Aircraft A20N/M-SDE2E3FGHIRWXY/LB1

Departure

Time 2026-04-30 14:20
Airport Paro International Airport (VQPR)

Arrival

Time N/A
Airport Chhatrapati Shivaji Maharaj International Airport (VABB)
Time Latitude Longitude Altitude Speed Heading
2026-04-30 14:02 27.40740 89.42041 7340 ft 0 kts 240°
2026-04-30 14:17 27.40740 89.42042 7340 ft 2 kts 240°
2026-04-30 14:17 27.40751 89.42061 7339 ft 7 kts 239°
2026-04-30 14:17 27.40755 89.42063 7340 ft 0 kts 283°
2026-04-30 14:18 27.40769 89.42046 7342 ft 4 kts 342°
2026-04-30 14:18 27.40800 89.42056 7344 ft 7 kts 30°
2026-04-30 14:18 27.40930 89.42092 7346 ft 14 kts 329°
2026-04-30 14:19 27.41146 89.41932 7351 ft 12 kts 311°
2026-04-30 14:19 27.41173 89.41932 7350 ft 6 kts 57°
2026-04-30 14:19 27.41158 89.41951 7352 ft 16 kts 144°
2026-04-30 14:20 27.40727 89.42221 7341 ft 126 kts 150°
2026-04-30 14:20 27.39703 89.42865 7497 ft 196 kts 151°
2026-04-30 14:20 27.37343 89.44348 9984 ft 193 kts 151°
2026-04-30 14:21 27.36107 89.45123 10734 ft 214 kts 151°
2026-04-30 14:21 27.34733 89.45985 11321 ft 238 kts 152°
2026-04-30 14:21 27.31559 89.47978 12587 ft 282 kts 152°
2026-04-30 14:22 27.29854 89.49050 13682 ft 286 kts 152°
2026-04-30 14:22 27.26310 89.51279 15573 ft 299 kts 153°
2026-04-30 14:22 27.24387 89.52189 16421 ft 300 kts 172°
2026-04-30 14:23 27.20236 89.52323 18356 ft 302 kts 185°